Weather in Borovets

Bulgaria     42°16′00″N   23°36′15″E
temp.,
°C
wind,
m/s
gust,
m/s
humid.,
%
clouds,
%
prec.,
mm/h
press.,
hPa
HPBL,
m
23 april, fri
fri2300:00+2ssw2288100 0.2 102165
03:00+3sw2297100 1.2 1020282
06:00+3wsw1297100 0.9 1019208
09:00+3w1294100 1.4 1020343
12:00+4wnw2298100 0.9 1020352
15:00+4nw2398100 1.4 1021364
18:00+4nw2295100 0.2 1020299
21:00+3e019997 0.7 1022111
24 april, sat
sat2400:00+2n1198100 0.1 1023190
03:00+1n1196100 0.2 102381
06:00+1e119684 0.1 102249
09:00+2nne1192100 0.2 1022276
12:00+3ne2290100 0.3 1022467
15:00+3ne229297 0.6 1021433
18:00+2ene1296100 0.2 1020372
21:00+2ene119999 0.3 1021118
25 april, sun
sun2500:00+2ene1298100 0.0 1021135
03:00+1e1294100 0.0 1020188
06:000e2293100 0.0 1020161
09:00+2ne228874 0.0 1019343
12:00+5nne217965 0.0 1018635
15:00+8n326321 0.1 10161187
18:00+7nne22638 0.1 10161002
21:00+1sse11914 0.1 102120
26 april, mon
mon2600:000s21791 0.0 102217
03:00−1s11882 0.0 102114
06:00−1s21699 0.0 102217
09:00+5ne225375 0.0 1019414
12:00+9nne223965 0.0 10171210
15:00+11n334567 0.0 10161633
18:00+9n125449 0.0 10151010
21:00+3ssw328593 0.0 101729
27 april, tue
tue2700:00+3ssw3269100 0.0 101830
03:00+3s3280100 0.0 101532
06:00+3ssw228497 0.0 101527
09:00+9wsw1362100 0.0 1012256
12:00+13nw255254 0.0 1010896
15:00+11sw3952100 0.1 10101095
18:00+10w1475100 1.5 1009469
21:00+5s348747 1.5 100966